SCP
0 -0 -0 -0 -0 -0 -0 -0 -0 -0 -0 -0 -0 -0 -0 -0 -0 -0 0 0 0 0 0 0 0 0 0 -0 -0 -0 0 0 0 0 0 0 0 0 0 0 0 0 0
-0 -0 -0 -0 -0 -0 -0 -0 -0 -0 -0 -0 -0 -0 -0 -0 -0 0 0 0 0 0 0 0 0 0 -0 -0 -0 -0 0 0 0 0 0 0 0 0 0 0 0 0 0
-0 -0 -0 -0 -0 -0 -0 -0 -0 -0 -0 -0 0 0 0 -0 0 0 0 0 0 0 0 0 0 -0 0 -0 -0 -0 0 0 0 0 0 0 0 0 0 0 0 0 0
0 -0 -0 -0 -0 -0 -0 -0 0 0 0 0 0 0 0 0 0 0 0 0 0 0 0 -0 -0 -0 -0 -0 -0 -0 0 0 0 0 0 0 0 0 0 0 -0 0 0
0 0 0 -0 -0 0 -0 -0 0 0 0 0 0 0 0 0 0 0 0 0 0 0 0 -0 -0 0 0 0 0 0 0 0 0 0 0 0 0 0 0 0 0 -0 0
0 0 0 0 0 0 0 0 0 0 0 0 0 0 0 0 0 0 0 0 0 0 0 0 0 0 0 0 0 0 0 -0 -0 0 0 0 0 0 0 0 0 0 0
0 0 0 0 0 0 0 0 0 0 0 0 0 0 0 0 0 0 0 0 0 0 0 0 0 0 0 0 0 0 0 -0 0 0 0 0 0 0 0 0 0 0 0
0 0 0 0 0 0 0 0 0 0 0 0 0 0 0 0 0 0 0 0 0 0 0 0 0 0 0 0 0 0 0 0 0 0 0 0 0 0 0 0 0 0 0
0 0 0 0 0 0 0 0 0 0 0 0 0 0 0 0 0 0 0 0 0 0 0 0 0 0 0 0 0 0 0 0 0 0 0 0 0 0 0 0 0 0 0
0 0 0 0 0 0 0 0 0 0 0 0 0 0 0 0 0 0 0 0 0 0 0 0 0 0 0 0 0 0 0 0 0 0 0 0 0 0 0 0 0 0 0
0 0 0 0 0 0 0 0 0 0 0 0 0 0 0 0 0 0 0 0 0 0 0 0 0 0 0 0 0 0 0 0 0 0 0 0 0 0 0 0 0 0 0
0 0 0 0 0 0 0 0 0 0 0 0 0 0 0 0 0 0 0 0 0 0 0 0 0 0 0 0 0 0 0 0 0 0 0 0 0 0 0 0 0 0 0
0 0 0 0 0 0 0 0 0 0 0 0 0 0 0 0 0 0 0 0 0 0 0 0 0 0 0 0 0 0 0 0 0 0 0 0 0 0 0 0 0 0 0
0 0 0 0 0 0 0 0 0 0 0 0 0 0 0 0 0 0 0 0 0 0 0 0 0 0 0 0 0 0 0 0 0 0 0 0 0 0 0 0 0 0 0
0 0 0 0 0 0 0 0 0 0 0 0 0 0 0 0 0 0 0 0 0 0 0 0 0 0 0 0 0 0 0 0 0 0 0 0 0 0 0 0 0 0 0
0 0 0 0 0 0 0 0 0 0 0 0 0 0 0 0 0 0 0 0 0 0 0 0 0 0 0 0 0 0 0 0 0 0 0 0 0 0 0 0 0 0 0
0 0 0 0 0 0 0 0 0 0 0 0 0 0 0 0 0 0 0 0 0 0 0 0 0 0 0 0 0 0 0 0 0 0 0 0 0 0 0 0 0 0 0
0 0 0 0 0 0 0 0 0 0 0 0 0 0 0 0 0 0 0 0 0 0 0 0 0 0 0 0 0 0 0 0 0 0 0 0 0 0 0 0 0 0 0
0 0 0 0 0 0 0 0 0 0 0 0 0 0 0 0 0 0 0 0 0 0 0 0 0 0 0 0 0 0 0 0 0 0 0 0 0 0 0 0 0 0 0
0 0 0 0 0 0 0 0 0 0 0 0 0 0 0 0 0 0 0 0 0 0 0 0 0 0 0 0 0 0 0 0 0 0 0 0 0 0 0 0 0 0 0
0 0 0 0 0 0 0 0 0 0 0 0 0 0 0 0 0 0 0 0 0 0 0 0 0 0 0 0 0 0 0 0 0 0 0 0 0 0 0 0 0 0 0
0 0 0 0 0 0 0 0 0 0 0 0 0 0 0 0 0 0 0 0 0 0 0 0 0 0 0 0 0 0 0 0 0 0 0 0 0 0 0 0 0 0 0
0 0 0 0 0 0 0 0 0 0 0 0 0 0 0 0 0 0 0 0 0 0 0 0 0 0 0 0 0 0 0 0 0 0 0 0 0 0 0 0 0 0 0
0 0 0 0 0 0 0 0 0 0 0 0 0 0 0 0 0 0 0 0 0 0 0 0 0 0 0 0 0 0 0 0 0 0 0 0 0 0 0 0 0 0 0
0 0 0 0 0 0 0 0 0 0 0 0 0 0 0 0 0 0 0 0 0 0 0 0 0 0 0 0 0 0 0 0 0 0 0 0 0 0 0 0 0 0 0
0 0 0 0 0 0 0 0 0 0 0 0 0 0 0 0 0 0 0 0 0 0 0 0 0 0 0 0 0 0 0 0 0 0 0 0 0 0 0 0 0 0 0
Wind_Speed_500mb
35 36 47 51 53 48 44 41 36 29 26 24 23 21 20 18 17 16 15 14 14 14 14 14 12 9 8 6 5 5 7 7 7 5 2 1 3 4 5 7 11 7 15
35 38 48 52 51 48 45 43 39 33 29 27 26 23 21 19 17 15 13 12 13 12 11 9 7 5 3 3 4 4 4 5 6 4 1 2 5 6 8 9 11 12 11
36 39 49 53 51 48 44 44 40 36 32 29 27 25 24 21 19 16 14 14 13 10 8 5 3 5 4 4 5 6 6 6 5 4 3 7 11 11 12 13 14 14 14
36 42 52 54 53 49 46 44 41 38 34 31 27 25 25 22 19 20 20 16 15 14 14 15 14 9 10 11 11 11 10 8 8 7 5 7 8 21 17 17 16 16 14
40 43 51 54 54 51 48 45 44 41 35 30 26 28 26 26 28 24 24 21 21 22 20 19 19 19 20 21 21 18 17 15 14 11 8 11 10 23 22 22 20 20 22
40 45 52 54 56 54 49 46 45 42 36 30 34 35 29 31 27 23 23 23 24 25 25 25 27 26 26 26 25 24 22 21 20 10 12 18 18 27 24 25 25 21 20
41 45 51 55 58 56 49 46 44 40 38 39 41 39 30 28 27 27 26 27 28 29 29 30 29 28 25 22 20 19 19 19 19 20 22 25 29 24 25 24 26 25 26
41 45 49 57 60 58 52 47 48 46 45 46 45 39 29 30 31 32 31 31 32 32 32 29 28 23 18 17 14 12 11 13 14 18 18 20 21 21 22 22 22 23 24
41 46 47 59 59 55 60 59 56 54 53 52 48 35 33 33 33 33 32 32 33 34 29 25 21 17 14 13 11 8 8 10 13 15 15 18 16 18 20 20 21 23 24
45 49 54 57 61 63 62 62 60 57 56 53 45 38 36 33 34 35 32 33 33 28 23 21 18 15 14 13 13 12 10 12 15 15 16 17 17 18 19 20 21 22 23
49 53 61 68 69 69 67 65 63 60 56 51 46 40 34 37 37 35 37 29 28 24 22 19 17 17 16 15 15 14 13 13 13 15 19 16 17 18 19 20 20 21 22
57 68 69 75 75 72 70 68 66 61 57 52 50 46 41 44 40 38 34 31 27 25 24 22 20 19 18 16 16 16 16 12 13 14 19 17 18 18 18 18 19 20 21
56 56 79 81 78 76 73 71 70 69 64 58 55 50 48 47 44 40 35 34 31 29 27 23 22 21 19 16 16 16 15 14 14 15 16 15 16 16 17 16 17 18 20
60 61 59 83 83 78 76 72 67 66 64 62 58 53 54 52 46 44 38 36 34 31 28 25 23 21 19 17 16 16 15 15 16 14 16 14 14 15 15 16 15 18 27
58 60 67 65 73 81 79 72 69 67 64 60 57 55 56 53 49 45 41 38 35 32 29 26 23 21 19 18 17 17 16 16 16 15 17 14 14 14 16 13 19 25 28
64 66 65 73 77 77 83 81 77 70 64 59 57 56 57 54 51 47 43 40 38 34 31 28 25 23 21 19 17 18 17 17 17 15 16 15 14 14 14 23 22 27 28
72 71 77 78 83 83 86 85 79 73 67 62 61 61 61 57 52 48 46 42 39 36 32 30 27 24 21 19 18 19 19 18 18 16 17 18 15 15 23 21 26 25 35
70 70 74 80 85 89 91 87 83 75 68 66 66 65 64 59 54 52 48 44 41 37 34 30 27 24 22 20 20 19 20 18 18 18 18 18 18 24 24 24 22 33 38
71 72 77 81 88 91 92 89 85 79 73 70 68 68 65 61 58 54 50 46 42 39 35 32 28 25 23 21 20 19 21 20 21 19 20 19 20 24 24 20 32 36 40
75 79 79 84 89 91 93 89 84 81 75 74 74 71 68 66 60 57 51 49 44 41 37 34 30 27 25 21 19 19 22 23 22 21 20 19 19 23 21 30 36 42 44
78 79 87 91 91 95 101 101 96 93 84 83 79 77 73 67 62 59 56 51 46 42 37 35 31 28 26 22 18 18 19 19 22 22 21 20 23 21 26 34 37 40 45
80 91 84 96 97 100 104 106 105 96 90 88 85 79 75 70 70 67 59 54 48 45 41 36 33 30 26 23 18 16 10 14 24 26 30 22 24 29 32 35 38 44 44
84 93 95 105 108 103 102 105 104 96 90 92 90 86 82 82 71 60 59 56 51 46 41 37 34 31 28 26 22 17 11 10 12 18 30 26 24 29 35 35 38 44 42
88 89 96 97 106 110 107 110 116 117 115 106 99 94 89 79 71 71 67 59 53 50 43 40 36 34 31 28 24 25 24 17 12 8 17 21 24 32 37 34 37 41 40
68 79 90 97 103 107 113 114 114 117 113 105 105 102 94 86 82 78 68 62 58 52 45 42 39 36 32 30 28 27 26 23 21 22 17 22 32 30 39 39 37 35 38
51 66 74 86 99 104 109 113 116 118 118 111 103 103 98 93 89 79 72 69 61 55 48 43 40 37 34 31 30 29 27 21 20 22 22 29 34 36 43 38 33 35 36
Wind_Direction_500mb
192 196 193 192 189 192 192 192 191 185 180 173 173 171 165 158 154 153 146 142 136 134 139 144 148 139 134 132 129 128 154 174 174 159 147 306 304 306 316 342 355 14 334
191 193 189 191 191 192 194 195 193 188 186 184 186 186 182 179 175 172 169 161 153 154 152 151 157 158 153 137 169 191 179 186 188 184 144 356 298 305 317 333 351 354 352
187 195 190 192 193 194 196 197 195 192 192 192 197 196 197 196 193 193 192 188 182 177 182 193 230 200 202 262 265 240 240 250 247 253 305 55 296 305 307 318 330 340 345
185 195 193 194 195 197 199 199 197 196 198 199 204 207 209 206 207 212 210 203 195 190 183 186 201 241 277 285 281 276 277 269 266 269 23 278 283 301 299 301 309 313 319
188 192 198 197 197 199 199 199 198 200 202 203 202 203 200 194 200 199 200 203 204 203 211 230 254 266 272 277 276 274 274 273 272 274 260 274 253 281 286 293 298 307 308
195 193 203 198 199 199 200 201 200 203 204 204 208 215 210 213 220 215 217 218 221 228 240 248 257 265 269 271 271 270 266 265 268 274 257 272 280 268 285 284 281 276 284
197 195 209 199 200 199 201 203 204 206 203 209 215 216 217 213 215 224 228 231 234 238 244 251 260 267 270 269 267 265 263 260 256 257 263 268 268 286 285 286 288 287 278
199 198 211 200 199 198 198 200 202 205 206 208 213 220 226 224 229 233 235 238 241 243 246 251 256 255 255 256 256 260 257 259 257 261 268 273 284 285 288 289 289 286 281
194 200 204 198 197 199 202 204 206 205 203 209 221 229 234 234 234 237 239 240 241 243 245 245 241 238 239 248 250 254 259 262 263 267 272 271 294 286 287 290 291 292 290
198 207 199 200 200 197 199 204 205 206 211 219 227 233 237 236 236 239 241 241 240 237 230 232 229 233 231 240 249 253 259 267 273 282 282 289 290 290 290 292 294 295 295
204 210 204 206 201 200 202 203 208 213 219 224 230 233 234 235 235 237 235 229 223 223 222 227 232 237 243 249 257 258 254 256 267 277 282 296 292 292 293 297 297 298 300
207 215 209 208 205 204 205 208 212 217 221 223 226 229 228 231 231 227 224 218 216 218 222 223 231 242 250 254 252 256 259 262 268 277 284 292 295 295 296 298 301 304 303
215 218 213 209 210 209 208 214 214 219 219 220 226 229 225 226 227 222 218 215 216 219 223 229 233 238 241 242 251 258 267 270 273 276 283 285 288 290 293 300 306 311 312
216 215 213 214 211 211 211 215 211 216 215 219 225 227 223 222 218 217 216 216 217 219 224 225 228 231 235 239 246 254 263 272 272 274 278 279 279 283 288 299 307 310 307
218 212 214 205 209 210 211 212 212 216 219 223 226 223 219 215 215 216 215 218 220 220 221 223 226 227 231 235 240 250 256 259 263 264 272 272 274 279 289 294 301 301 303
219 215 212 213 211 210 212 214 215 218 223 224 225 220 213 213 215 216 218 218 219 219 220 222 222 225 229 234 240 249 251 256 259 261 270 267 265 271 282 298 296 298 301
221 218 216 218 213 214 215 215 217 220 223 222 221 214 211 213 215 218 219 217 218 218 218 220 222 224 230 234 239 244 247 247 253 260 258 262 256 263 297 292 294 295 303
224 217 217 215 216 216 217 217 218 219 220 219 217 214 213 214 216 217 218 216 217 217 218 220 222 225 226 229 237 241 249 248 253 258 254 252 259 292 293 294 291 303 307
222 216 218 218 220 218 219 218 219 219 217 217 216 216 215 215 216 217 217 217 215 215 218 220 222 226 227 227 232 241 248 249 256 248 245 249 272 286 295 291 305 305 310
225 219 217 221 225 219 220 218 216 216 215 216 218 218 216 216 216 218 217 217 216 216 216 221 220 221 228 229 228 242 247 254 246 237 233 261 279 293 289 304 310 315 317
223 220 214 219 223 220 217 216 215 215 215 216 217 217 217 216 217 217 218 218 216 219 219 218 221 219 223 223 225 233 251 240 235 223 220 280 289 292 299 308 313 314 317
229 224 213 217 225 222 222 222 222 219 219 219 217 217 216 217 217 216 216 218 218 220 219 219 218 219 220 220 216 220 235 233 233 234 223 279 283 302 307 314 318 317 318
227 225 227 222 226 224 223 219 217 216 218 216 216 216 216 215 215 216 218 218 219 221 222 220 218 219 219 218 216 213 203 203 214 236 245 271 283 302 309 318 319 317 315
226 229 227 224 227 226 221 220 219 218 216 219 219 218 218 219 215 215 218 218 218 220 219 220 219 220 219 221 219 225 231 228 206 250 253 267 290 306 309 320 318 316 310
230 228 228 225 224 226 225 223 221 220 221 220 217 217 216 213 214 215 215 217 219 220 218 219 220 221 221 223 224 228 230 235 241 246 269 276 298 305 310 319 319 312 309
230 229 229 227 224 224 226 224 223 222 218 219 219 217 215 213 214 214 214 217 218 219 218 218 219 221 223 226 230 230 234 237 245 247 266 289 302 311 313 318 320 320 313
Wind_Speed_850mb
35 36 47 51 53 48 44 41 36 29 26 24 23 21 20 18 17 16 15 14 14 14 14 14 12 9 8 6 5 5 7 7 7 5 2 1 3 4 5 7 11 7 15
35 38 48 52 51 48 45 43 39 33 29 27 26 23 21 19 17 15 13 12 13 12 11 9 7 5 3 3 4 4 4 5 6 4 1 2 5 6 8 9 11 12 11
36 39 49 53 51 48 44 44 40 36 32 29 27 25 24 21 19 16 14 14 13 10 8 5 3 5 4 4 5 6 6 6 5 4 3 7 11 11 12 13 14 14 14
36 42 52 54 53 49 46 44 41 38 34 31 27 25 25 22 19 20 20 16 15 14 14 15 14 9 10 11 11 11 10 8 8 7 5 7 8 21 17 17 16 16 14
40 43 51 54 54 51 48 45 44 41 35 30 26 28 26 26 28 24 24 21 21 22 20 19 19 19 20 21 21 18 17 15 14 11 8 11 10 23 22 22 20 20 22
40 45 52 54 56 54 49 46 45 42 36 30 34 35 29 31 27 23 23 23 24 25 25 25 27 26 26 26 25 24 22 21 20 10 12 18 18 27 24 25 25 21 20
41 45 51 55 58 56 49 46 44 40 38 39 41 39 30 28 27 27 26 27 28 29 29 30 29 28 25 22 20 19 19 19 19 20 22 25 29 24 25 24 26 25 26
41 45 49 57 60 58 52 47 48 46 45 46 45 39 29 30 31 32 31 31 32 32 32 29 28 23 18 17 14 12 11 13 14 18 18 20 21 21 22 22 22 23 24
41 46 47 59 59 55 60 59 56 54 53 52 48 35 33 33 33 33 32 32 33 34 29 25 21 17 14 13 11 8 8 10 13 15 15 18 16 18 20 20 21 23 24
45 49 54 57 61 63 62 62 60 57 56 53 45 38 36 33 34 35 32 33 33 28 23 21 18 15 14 13 13 12 10 12 15 15 16 17 17 18 19 20 21 22 23
49 53 61 68 69 69 67 65 63 60 56 51 46 40 34 37 37 35 37 29 28 24 22 19 17 17 16 15 15 14 13 13 13 15 19 16 17 18 19 20 20 21 22
57 68 69 75 75 72 70 68 66 61 57 52 50 46 41 44 40 38 34 31 27 25 24 22 20 19 18 16 16 16 16 12 13 14 19 17 18 18 18 18 19 20 21
56 56 79 81 78 76 73 71 70 69 64 58 55 50 48 47 44 40 35 34 31 29 27 23 22 21 19 16 16 16 15 14 14 15 16 15 16 16 17 16 17 18 20
60 61 59 83 83 78 76 72 67 66 64 62 58 53 54 52 46 44 38 36 34 31 28 25 23 21 19 17 16 16 15 15 16 14 16 14 14 15 15 16 15 18 27
58 60 67 65 73 81 79 72 69 67 64 60 57 55 56 53 49 45 41 38 35 32 29 26 23 21 19 18 17 17 16 16 16 15 17 14 14 14 16 13 19 25 28
64 66 65 73 77 77 83 81 77 70 64 59 57 56 57 54 51 47 43 40 38 34 31 28 25 23 21 19 17 18 17 17 17 15 16 15 14 14 14 23 22 27 28
72 71 77 78 83 83 86 85 79 73 67 62 61 61 61 57 52 48 46 42 39 36 32 30 27 24 21 19 18 19 19 18 18 16 17 18 15 15 23 21 26 25 35
70 70 74 80 85 89 91 87 83 75 68 66 66 65 64 59 54 52 48 44 41 37 34 30 27 24 22 20 20 19 20 18 18 18 18 18 18 24 24 24 22 33 38
71 72 77 81 88 91 92 89 85 79 73 70 68 68 65 61 58 54 50 46 42 39 35 32 28 25 23 21 20 19 21 20 21 19 20 19 20 24 24 20 32 36 40
75 79 79 84 89 91 93 89 84 81 75 74 74 71 68 66 60 57 51 49 44 41 37 34 30 27 25 21 19 19 22 23 22 21 20 19 19 23 21 30 36 42 44
78 79 87 91 91 95 101 101 96 93 84 83 79 77 73 67 62 59 56 51 46 42 37 35 31 28 26 22 18 18 19 19 22 22 21 20 23 21 26 34 37 40 45
80 91 84 96 97 100 104 106 105 96 90 88 85 79 75 70 70 67 59 54 48 45 41 36 33 30 26 23 18 16 10 14 24 26 30 22 24 29 32 35 38 44 44
84 93 95 105 108 103 102 105 104 96 90 92 90 86 82 82 71 60 59 56 51 46 41 37 34 31 28 26 22 17 11 10 12 18 30 26 24 29 35 35 38 44 42
88 89 96 97 106 110 107 110 116 117 115 106 99 94 89 79 71 71 67 59 53 50 43 40 36 34 31 28 24 25 24 17 12 8 17 21 24 32 37 34 37 41 40
68 79 90 97 103 107 113 114 114 117 113 105 105 102 94 86 82 78 68 62 58 52 45 42 39 36 32 30 28 27 26 23 21 22 17 22 32 30 39 39 37 35 38
51 66 74 86 99 104 109 113 116 118 118 111 103 103 98 93 89 79 72 69 61 55 48 43 40 37 34 31 30 29 27 21 20 22 22 29 34 36 43 38 33 35 36
Wind_Direction_850mb
192 196 193 192 189 192 192 192 191 185 180 173 173 171 165 158 154 153 146 142 136 134 139 144 148 139 134 132 129 128 154 174 174 159 147 306 304 306 316 342 355 14 334
191 193 189 191 191 192 194 195 193 188 186 184 186 186 182 179 175 172 169 161 153 154 152 151 157 158 153 137 169 191 179 186 188 184 144 356 298 305 317 333 351 354 352
187 195 190 192 193 194 196 197 195 192 192 192 197 196 197 196 193 193 192 188 182 177 182 193 230 200 202 262 265 240 240 250 247 253 305 55 296 305 307 318 330 340 345
185 195 193 194 195 197 199 199 197 196 198 199 204 207 209 206 207 212 210 203 195 190 183 186 201 241 277 285 281 276 277 269 266 269 23 278 283 301 299 301 309 313 319
188 192 198 197 197 199 199 199 198 200 202 203 202 203 200 194 200 199 200 203 204 203 211 230 254 266 272 277 276 274 274 273 272 274 260 274 253 281 286 293 298 307 308
195 193 203 198 199 199 200 201 200 203 204 204 208 215 210 213 220 215 217 218 221 228 240 248 257 265 269 271 271 270 266 265 268 274 257 272 280 268 285 284 281 276 284
197 195 209 199 200 199 201 203 204 206 203 209 215 216 217 213 215 224 228 231 234 238 244 251 260 267 270 269 267 265 263 260 256 257 263 268 268 286 285 286 288 287 278
199 198 211 200 199 198 198 200 202 205 206 208 213 220 226 224 229 233 235 238 241 243 246 251 256 255 255 256 256 260 257 259 257 261 268 273 284 285 288 289 289 286 281
194 200 204 198 197 199 202 204 206 205 203 209 221 229 234 234 234 237 239 240 241 243 245 245 241 238 239 248 250 254 259 262 263 267 272 271 294 286 287 290 291 292 290
198 207 199 200 200 197 199 204 205 206 211 219 227 233 237 236 236 239 241 241 240 237 230 232 229 233 231 240 249 253 259 267 273 282 282 289 290 290 290 292 294 295 295
204 210 204 206 201 200 202 203 208 213 219 224 230 233 234 235 235 237 235 229 223 223 222 227 232 237 243 249 257 258 254 256 267 277 282 296 292 292 293 297 297 298 300
207 215 209 208 205 204 205 208 212 217 221 223 226 229 228 231 231 227 224 218 216 218 222 223 231 242 250 254 252 256 259 262 268 277 284 292 295 295 296 298 301 304 303
215 218 213 209 210 209 208 214 214 219 219 220 226 229 225 226 227 222 218 215 216 219 223 229 233 238 241 242 251 258 267 270 273 276 283 285 288 290 293 300 306 311 312
216 215 213 214 211 211 211 215 211 216 215 219 225 227 223 222 218 217 216 216 217 219 224 225 228 231 235 239 246 254 263 272 272 274 278 279 279 283 288 299 307 310 307
218 212 214 205 209 210 211 212 212 216 219 223 226 223 219 215 215 216 215 218 220 220 221 223 226 227 231 235 240 250 256 259 263 264 272 272 274 279 289 294 301 301 303
219 215 212 213 211 210 212 214 215 218 223 224 225 220 213 213 215 216 218 218 219 219 220 222 222 225 229 234 240 249 251 256 259 261 270 267 265 271 282 298 296 298 301
221 218 216 218 213 214 215 215 217 220 223 222 221 214 211 213 215 218 219 217 218 218 218 220 222 224 230 234 239 244 247 247 253 260 258 262 256 263 297 292 294 295 303
224 217 217 215 216 216 217 217 218 219 220 219 217 214 213 214 216 217 218 216 217 217 218 220 222 225 226 229 237 241 249 248 253 258 254 252 259 292 293 294 291 303 307
222 216 218 218 220 218 219 218 219 219 217 217 216 216 215 215 216 217 217 217 215 215 218 220 222 226 227 227 232 241 248 249 256 248 245 249 272 286 295 291 305 305 310
225 219 217 221 225 219 220 218 216 216 215 216 218 218 216 216 216 218 217 217 216 216 216 221 220 221 228 229 228 242 247 254 246 237 233 261 279 293 289 304 310 315 317
223 220 214 219 223 220 217 216 215 215 215 216 217 217 217 216 217 217 218 218 216 219 219 218 221 219 223 223 225 233 251 240 235 223 220 280 289 292 299 308 313 314 317
229 224 213 217 225 222 222 222 222 219 219 219 217 217 216 217 217 216 216 218 218 220 219 219 218 219 220 220 216 220 235 233 233 234 223 279 283 302 307 314 318 317 318
227 225 227 222 226 224 223 219 217 216 218 216 216 216 216 215 215 216 218 218 219 221 222 220 218 219 219 218 216 213 203 203 214 236 245 271 283 302 309 318 319 317 315
226 229 227 224 227 226 221 220 219 218 216 219 219 218 218 219 215 215 218 218 218 220 219 220 219 220 219 221 219 225 231 228 206 250 253 267 290 306 309 320 318 316 310
230 228 228 225 224 226 225 223 221 220 221 220 217 217 216 213 214 215 215 217 219 220 218 219 220 221 221 223 224 228 230 235 241 246 269 276 298 305 310 319 319 312 309
230 229 229 227 224 224 226 224 223 222 218 219 219 217 215 213 214 214 214 217 218 219 218 218 219 221 223 226 230 230 234 237 245 247 266 289 302 311 313 318 320 320 313